Year,Month,Day,Hour,Minute,Value (Times are PST for temperature in C)
2008,09,23,00,00,9.70
2008,09,23,00,01,9.70
2008,09,23,00,02,9.70
2008,09,23,00,03,9.70
2008,09,23,00,04,9.70
2008,09,23,00,05,9.70
2008,09,23,00,06,9.70
2008,09,23,00,07,9.70
2008,09,23,00,08,9.70
2008,09,23,00,09,9.70
2008,09,23,00,10,9.70
2008,09,23,00,11,9.70
2008,09,23,00,12,9.70
2008,09,23,00,13,9.60
2008,09,23,00,14,9.50
2008,09,23,00,15,9.50
2008,09,23,00,16,9.50
2008,09,23,00,17,9.50
2008,09,23,00,18,9.40
2008,09,23,00,19,9.40
2008,09,23,00,20,9.40
2008,09,23,00,21,9.40
2008,09,23,00,22,9.40
2008,09,23,00,23,9.40
2008,09,23,00,24,9.40
2008,09,23,00,25,9.40
2008,09,23,00,26,9.40
2008,09,23,00,27,9.40
2008,09,23,00,28,9.40
2008,09,23,00,29,9.30
2008,09,23,00,30,9.30
2008,09,23,00,31,9.30
2008,09,23,00,32,9.30
2008,09,23,00,33,9.30
2008,09,23,00,34,9.30
2008,09,23,00,35,9.30
2008,09,23,00,36,9.30
2008,09,23,00,37,9.30
2008,09,23,00,38,9.30
2008,09,23,00,39,9.30
2008,09,23,00,40,9.30
2008,09,23,00,41,9.30
2008,09,23,00,42,9.30
2008,09,23,00,43,9.20
2008,09,23,00,44,9.20
2008,09,23,00,45,9.20
2008,09,23,00,46,9.30
2008,09,23,00,47,9.30
2008,09,23,00,48,9.30
2008,09,23,00,49,9.30
2008,09,23,00,50,9.30
2008,09,23,00,51,9.30
2008,09,23,00,52,9.30
2008,09,23,00,53,9.30
2008,09,23,00,54,9.30
2008,09,23,00,55,9.30
2008,09,23,00,56,9.30
2008,09,23,00,57,9.30
2008,09,23,00,58,9.30
2008,09,23,00,59,9.40
2008,09,23,01,00,9.40
2008,09,23,01,01,9.40
2008,09,23,01,02,9.40
2008,09,23,01,03,9.40
2008,09,23,01,04,9.40
2008,09,23,01,05,9.40
2008,09,23,01,06,9.40
2008,09,23,01,07,9.50
2008,09,23,01,08,9.50
2008,09,23,01,09,9.50
2008,09,23,01,10,9.40
2008,09,23,01,11,9.40
2008,09,23,01,12,9.40
2008,09,23,01,13,9.40
2008,09,23,01,14,9.40
2008,09,23,01,15,9.40
2008,09,23,01,16,9.30
2008,09,23,01,17,9.40
2008,09,23,01,18,9.40
2008,09,23,01,19,9.40
2008,09,23,01,20,9.40
2008,09,23,01,21,9.40
2008,09,23,01,22,9.40
2008,09,23,01,23,9.40
2008,09,23,01,24,9.40
2008,09,23,01,25,9.40
2008,09,23,01,26,9.50
2008,09,23,01,27,9.50
2008,09,23,01,28,9.50
2008,09,23,01,29,9.50
2008,09,23,01,30,9.50
2008,09,23,01,31,9.60
2008,09,23,01,32,9.60
2008,09,23,01,33,9.60
2008,09,23,01,34,9.60
2008,09,23,01,35,9.60
2008,09,23,01,36,9.60
2008,09,23,01,37,9.60
2008,09,23,01,38,9.60
2008,09,23,01,39,9.60
2008,09,23,01,40,9.60
2008,09,23,01,41,9.60
2008,09,23,01,42,9.60
2008,09,23,01,43,9.60
2008,09,23,01,44,9.60
2008,09,23,01,45,9.50
2008,09,23,01,46,9.50
2008,09,23,01,47,9.50
2008,09,23,01,48,9.50
2008,09,23,01,49,9.50
2008,09,23,01,50,9.50
2008,09,23,01,51,9.50
2008,09,23,01,52,9.50
2008,09,23,01,53,9.50
2008,09,23,01,54,9.50
2008,09,23,01,55,9.50
2008,09,23,01,56,9.40
2008,09,23,01,57,9.40
2008,09,23,01,58,9.40
2008,09,23,01,59,9.40
2008,09,23,02,00,9.40
2008,09,23,02,01,9.40
2008,09,23,02,02,9.30
2008,09,23,02,03,9.30
2008,09,23,02,04,9.30
2008,09,23,02,05,9.30
2008,09,23,02,06,9.30
2008,09,23,02,07,9.20
2008,09,23,02,08,9.20
2008,09,23,02,09,9.20
2008,09,23,02,10,9.20
2008,09,23,02,11,9.20
2008,09,23,02,12,9.20
2008,09,23,02,13,9.10
2008,09,23,02,14,9.10
2008,09,23,02,15,9.00
2008,09,23,02,16,9.00
2008,09,23,02,17,9.00
2008,09,23,02,18,8.90
2008,09,23,02,19,8.90
2008,09,23,02,20,8.90
2008,09,23,02,21,8.80
2008,09,23,02,22,8.80
2008,09,23,02,23,8.80
2008,09,23,02,24,8.70
2008,09,23,02,25,8.70
2008,09,23,02,26,8.70
2008,09,23,02,27,8.70
2008,09,23,02,28,8.70
2008,09,23,02,29,8.60
2008,09,23,02,30,8.60
2008,09,23,02,31,8.60
2008,09,23,02,32,8.60
2008,09,23,02,33,8.60
2008,09,23,02,34,8.60
2008,09,23,02,35,8.50
2008,09,23,02,36,8.50
2008,09,23,02,37,8.50
2008,09,23,02,38,8.40
2008,09,23,02,39,8.40
2008,09,23,02,40,8.30
2008,09,23,02,41,8.30
2008,09,23,02,42,8.30
2008,09,23,02,43,8.20
2008,09,23,02,44,8.20
2008,09,23,02,45,8.10
2008,09,23,02,46,8.10
2008,09,23,02,47,8.00
2008,09,23,02,48,8.00
2008,09,23,02,49,7.90
2008,09,23,02,50,7.90
2008,09,23,02,51,7.90
2008,09,23,02,52,7.90
2008,09,23,02,53,7.90
2008,09,23,02,54,7.80
2008,09,23,02,55,7.80
2008,09,23,02,56,7.80
2008,09,23,02,57,7.80
2008,09,23,02,58,7.70
2008,09,23,02,59,7.70
2008,09,23,03,00,7.60
2008,09,23,03,01,7.60
2008,09,23,03,02,7.50
2008,09,23,03,03,7.50
2008,09,23,03,04,7.50
2008,09,23,03,05,7.40
2008,09,23,03,06,7.40
2008,09,23,03,07,7.30
2008,09,23,03,08,7.30
2008,09,23,03,09,7.30
2008,09,23,03,10,7.30
2008,09,23,03,11,7.20
2008,09,23,03,12,7.20
2008,09,23,03,13,7.10
2008,09,23,03,14,7.10
2008,09,23,03,15,7.10
2008,09,23,03,16,7.00
2008,09,23,03,17,7.00
2008,09,23,03,18,7.00
2008,09,23,03,19,7.00
2008,09,23,03,20,6.90
2008,09,23,03,21,6.90
2008,09,23,03,22,6.90
2008,09,23,03,23,6.90
2008,09,23,03,24,6.90
2008,09,23,03,25,6.90
2008,09,23,03,26,6.90
2008,09,23,03,27,6.90
2008,09,23,03,28,6.80
2008,09,23,03,29,6.80
2008,09,23,03,30,6.80
2008,09,23,03,31,6.80
2008,09,23,03,32,6.80
2008,09,23,03,33,6.80
2008,09,23,03,34,6.70
2008,09,23,03,35,6.70
2008,09,23,03,36,6.70
2008,09,23,03,37,6.60
2008,09,23,03,38,6.60
2008,09,23,03,39,6.60
2008,09,23,03,40,6.60
2008,09,23,03,41,6.60
2008,09,23,03,42,6.50
2008,09,23,03,43,6.40
2008,09,23,03,44,6.40
2008,09,23,03,45,6.40
2008,09,23,03,46,6.40
2008,09,23,03,47,6.40
2008,09,23,03,48,6.40
2008,09,23,03,49,6.40
2008,09,23,03,50,6.40
2008,09,23,03,51,6.40
2008,09,23,03,52,6.30
2008,09,23,03,53,6.30
2008,09,23,03,54,6.30
2008,09,23,03,55,6.30
2008,09,23,03,56,6.30
2008,09,23,03,57,6.30
2008,09,23,03,58,6.30
2008,09,23,03,59,6.20
2008,09,23,04,00,6.20
2008,09,23,04,01,6.20
2008,09,23,04,02,6.20
2008,09,23,04,03,6.20
2008,09,23,04,04,6.10
2008,09,23,04,05,6.10
2008,09,23,04,06,6.10
2008,09,23,04,07,6.00
2008,09,23,04,08,6.00
2008,09,23,04,09,6.00
2008,09,23,04,10,5.90
2008,09,23,04,11,5.90
2008,09,23,04,12,5.90
2008,09,23,04,13,5.90
2008,09,23,04,14,5.90
2008,09,23,04,15,5.90
2008,09,23,04,16,5.90
2008,09,23,04,17,5.90
2008,09,23,04,18,5.90
2008,09,23,04,19,5.80
2008,09,23,04,20,5.80
2008,09,23,04,21,5.80
2008,09,23,04,22,5.80
2008,09,23,04,23,5.80
2008,09,23,04,24,5.80
2008,09,23,04,25,5.80
2008,09,23,04,26,5.80
2008,09,23,04,27,5.80
2008,09,23,04,28,5.80
2008,09,23,04,29,5.80
2008,09,23,04,30,5.80
2008,09,23,04,31,5.80
2008,09,23,04,32,5.80
2008,09,23,04,33,5.70
2008,09,23,04,34,5.70
2008,09,23,04,35,5.70
2008,09,23,04,36,5.70
2008,09,23,04,37,5.70
2008,09,23,04,38,5.70
2008,09,23,04,39,5.70
2008,09,23,04,40,5.70
2008,09,23,04,41,5.70
2008,09,23,04,42,5.60
2008,09,23,04,43,5.60
2008,09,23,04,44,5.60
2008,09,23,04,45,5.60
2008,09,23,04,46,5.60
2008,09,23,04,47,5.60
2008,09,23,04,48,5.50
2008,09,23,04,49,5.50
2008,09,23,04,50,5.50
2008,09,23,04,51,5.40
2008,09,23,04,52,5.40
2008,09,23,04,53,5.40
2008,09,23,04,54,5.30
2008,09,23,04,55,5.30
2008,09,23,04,56,5.30
2008,09,23,04,57,5.30
2008,09,23,04,58,5.30
2008,09,23,04,59,5.30
2008,09,23,05,00,5.30
2008,09,23,05,01,5.30
2008,09,23,05,02,5.30
2008,09,23,05,03,5.30
2008,09,23,05,04,5.20
2008,09,23,05,05,5.20
2008,09,23,05,06,5.20
2008,09,23,05,07,5.10
2008,09,23,05,08,5.10
2008,09,23,05,09,5.10
2008,09,23,05,10,5.10
2008,09,23,05,11,5.10
2008,09,23,05,12,5.10
2008,09,23,05,13,5.10
2008,09,23,05,14,5.10
2008,09,23,05,15,5.10
2008,09,23,05,16,5.10
2008,09,23,05,17,5.10
2008,09,23,05,18,5.10
2008,09,23,05,19,5.10
2008,09,23,05,20,5.10
2008,09,23,05,21,5.10
2008,09,23,05,22,5.10
2008,09,23,05,23,5.10
2008,09,23,05,24,5.10
2008,09,23,05,25,5.10
2008,09,23,05,26,5.10
2008,09,23,05,27,5.10
2008,09,23,05,28,5.10
2008,09,23,05,29,5.10
2008,09,23,05,30,5.10
2008,09,23,05,31,5.10
2008,09,23,05,32,5.10
2008,09,23,05,33,5.10
2008,09,23,05,34,5.10
2008,09,23,05,35,5.00
2008,09,23,05,36,4.90
2008,09,23,05,37,4.90
2008,09,23,05,38,4.90
2008,09,23,05,39,4.90
2008,09,23,05,40,4.90
2008,09,23,05,41,4.90
2008,09,23,05,42,4.90
2008,09,23,05,43,4.90
2008,09,23,05,44,5.00
2008,09,23,05,45,5.10
2008,09,23,05,46,5.20
2008,09,23,05,47,5.20
2008,09,23,05,48,5.20
2008,09,23,05,49,5.30
2008,09,23,05,50,5.30
2008,09,23,05,51,5.30
2008,09,23,05,52,5.30
2008,09,23,05,53,5.20
2008,09,23,05,54,5.20
2008,09,23,05,55,5.20
2008,09,23,05,56,5.10
2008,09,23,05,57,5.10
2008,09,23,05,58,5.10
2008,09,23,05,59,5.10
2008,09,23,06,00,5.10
2008,09,23,06,01,5.10
2008,09,23,06,02,5.10
2008,09,23,06,03,5.10
2008,09,23,06,04,5.10
2008,09,23,06,05,5.10
2008,09,23,06,06,5.10
2008,09,23,06,07,5.10
2008,09,23,06,08,5.00
2008,09,23,06,09,4.90
2008,09,23,06,10,4.90
2008,09,23,06,11,4.90
2008,09,23,06,12,4.90
2008,09,23,06,13,4.90
2008,09,23,06,14,4.90
2008,09,23,06,15,4.90
2008,09,23,06,16,4.90
2008,09,23,06,17,4.90
2008,09,23,06,18,4.90
2008,09,23,06,19,4.90
2008,09,23,06,20,4.90
2008,09,23,06,21,4.90
2008,09,23,06,22,4.90
2008,09,23,06,23,4.90
2008,09,23,06,24,4.90
2008,09,23,06,25,4.90
2008,09,23,06,26,4.90
2008,09,23,06,27,4.90
2008,09,23,06,28,4.90
2008,09,23,06,29,4.90
2008,09,23,06,30,4.80
2008,09,23,06,31,4.80
2008,09,23,06,32,4.80
2008,09,23,06,33,4.80
2008,09,23,06,34,4.70
2008,09,23,06,35,4.70
2008,09,23,06,36,4.70
2008,09,23,06,37,4.70
2008,09,23,06,38,4.60
2008,09,23,06,39,4.60
2008,09,23,06,40,4.60
2008,09,23,06,41,4.60
2008,09,23,06,42,4.60
2008,09,23,06,43,4.60
2008,09,23,06,44,4.60
2008,09,23,06,45,4.60
2008,09,23,06,46,4.60
2008,09,23,06,47,4.60
2008,09,23,06,48,4.60
2008,09,23,06,49,4.60
2008,09,23,06,50,4.60
2008,09,23,06,51,4.60
2008,09,23,06,52,4.70
2008,09,23,06,53,4.80
2008,09,23,06,54,4.90
2008,09,23,06,55,4.90
2008,09,23,06,56,4.90
2008,09,23,06,57,4.90
2008,09,23,06,58,4.90
2008,09,23,06,59,4.80
2008,09,23,07,00,4.80
2008,09,23,07,01,4.80
2008,09,23,07,02,4.80
2008,09,23,07,03,4.70
2008,09,23,07,04,4.70
2008,09,23,07,05,4.70
2008,09,23,07,06,4.70
2008,09,23,07,07,4.70
2008,09,23,07,08,4.70
2008,09,23,07,09,4.70
2008,09,23,07,10,4.60
2008,09,23,07,11,4.60
2008,09,23,07,12,4.60
2008,09,23,07,13,4.60
2008,09,23,07,14,4.60
2008,09,23,07,15,4.70
2008,09,23,07,16,4.70
2008,09,23,07,17,4.70
2008,09,23,07,18,4.70
2008,09,23,07,19,4.70
2008,09,23,07,20,4.70
2008,09,23,07,21,4.80
2008,09,23,07,22,4.80
2008,09,23,07,23,4.80
2008,09,23,07,24,4.80
2008,09,23,07,25,4.80
2008,09,23,07,26,4.80
2008,09,23,07,27,4.80
2008,09,23,07,28,4.80
2008,09,23,07,29,4.80
2008,09,23,07,30,4.80
2008,09,23,07,31,4.90
2008,09,23,07,32,4.90
2008,09,23,07,33,4.90
2008,09,23,07,34,4.90
2008,09,23,07,35,4.90
2008,09,23,07,36,4.90
2008,09,23,07,37,4.90
2008,09,23,07,38,5.00
2008,09,23,07,39,5.10
2008,09,23,07,40,5.10
2008,09,23,07,41,5.10
2008,09,23,07,42,5.20
2008,09,23,07,43,5.30
2008,09,23,07,44,5.30
2008,09,23,07,45,5.30
2008,09,23,07,46,5.40
2008,09,23,07,47,5.50
2008,09,23,07,48,5.50
2008,09,23,07,49,5.50
2008,09,23,07,50,5.60
2008,09,23,07,51,5.60
2008,09,23,07,52,5.70
2008,09,23,07,53,5.70
2008,09,23,07,54,5.70
2008,09,23,07,55,5.70
2008,09,23,07,56,5.70
2008,09,23,07,57,5.70
2008,09,23,07,58,5.70
2008,09,23,07,59,5.70
2008,09,23,08,00,5.80
2008,09,23,08,01,5.80
2008,09,23,08,02,5.80
2008,09,23,08,03,5.80
2008,09,23,08,04,5.80
2008,09,23,08,05,5.80
2008,09,23,08,06,5.80
2008,09,23,08,07,5.80
2008,09,23,08,08,5.80
2008,09,23,08,09,5.80
2008,09,23,08,10,5.80
2008,09,23,08,11,5.90
2008,09,23,08,12,5.90
2008,09,23,08,13,5.90
2008,09,23,08,14,5.90
2008,09,23,08,15,5.90
2008,09,23,08,16,5.90
2008,09,23,08,17,5.90
2008,09,23,08,18,5.90
2008,09,23,08,19,5.90
2008,09,23,08,20,5.90
2008,09,23,08,21,5.90
2008,09,23,08,22,6.00
2008,09,23,08,23,6.00
2008,09,23,08,24,6.00
2008,09,23,08,25,6.10
2008,09,23,08,26,6.10
2008,09,23,08,27,6.20
2008,09,23,08,28,6.20
2008,09,23,08,29,6.20
2008,09,23,08,30,6.30
2008,09,23,08,31,6.40
2008,09,23,08,32,6.40
2008,09,23,08,33,6.60
2008,09,23,08,34,6.60
2008,09,23,08,35,6.70
2008,09,23,08,36,6.70
2008,09,23,08,37,6.80
2008,09,23,08,38,6.80
2008,09,23,08,39,6.90
2008,09,23,08,40,7.00
2008,09,23,08,41,7.10
2008,09,23,08,42,7.20
2008,09,23,08,43,7.30
2008,09,23,08,44,7.30
2008,09,23,08,45,7.40
2008,09,23,08,46,7.50
2008,09,23,08,47,7.50
2008,09,23,08,48,7.60
2008,09,23,08,49,7.70
2008,09,23,08,50,7.80
2008,09,23,08,51,7.80
2008,09,23,08,52,7.90
2008,09,23,08,53,7.90
2008,09,23,08,54,8.00
2008,09,23,08,55,8.00
2008,09,23,08,56,8.10
2008,09,23,08,57,8.20
2008,09,23,08,58,8.20
2008,09,23,08,59,8.20
2008,09,23,09,00,8.30
2008,09,23,09,01,8.40
2008,09,23,09,02,8.40
2008,09,23,09,03,8.50
2008,09,23,09,04,8.50
2008,09,23,09,05,8.60
2008,09,23,09,06,8.60
2008,09,23,09,07,8.70
2008,09,23,09,08,8.70
2008,09,23,09,09,8.80
2008,09,23,09,10,8.80
2008,09,23,09,11,8.90
2008,09,23,09,12,8.90
2008,09,23,09,13,9.00
2008,09,23,09,14,9.00
2008,09,23,09,15,9.10
2008,09,23,09,16,9.10
2008,09,23,09,17,9.20
2008,09,23,09,18,9.20
2008,09,23,09,19,9.20
2008,09,23,09,20,9.30
2008,09,23,09,21,9.30
2008,09,23,09,22,9.40
2008,09,23,09,23,9.40
2008,09,23,09,24,9.50
2008,09,23,09,25,9.50
2008,09,23,09,26,9.60
2008,09,23,09,27,9.70
2008,09,23,09,28,9.70
2008,09,23,09,29,9.70
2008,09,23,09,30,9.80
2008,09,23,09,31,9.90
2008,09,23,09,32,9.90
2008,09,23,09,33,9.90
2008,09,23,09,34,9.90
2008,09,23,09,35,10.10
2008,09,23,09,36,10.10
2008,09,23,09,37,10.10
2008,09,23,09,38,10.20
2008,09,23,09,39,10.20
2008,09,23,09,40,10.30
2008,09,23,09,41,10.40
2008,09,23,09,42,10.40
2008,09,23,09,43,10.50
2008,09,23,09,44,10.60
2008,09,23,09,45,10.70
2008,09,23,09,46,10.80
2008,09,23,09,47,10.90
2008,09,23,09,48,11.00
2008,09,23,09,49,11.10
2008,09,23,09,50,11.20
2008,09,23,09,51,11.20
2008,09,23,09,52,11.30
2008,09,23,09,53,11.30
2008,09,23,09,54,11.30
2008,09,23,09,55,11.30
2008,09,23,09,56,11.30
2008,09,23,09,57,11.30
2008,09,23,09,58,11.30
2008,09,23,09,59,11.30
2008,09,23,10,00,11.40
2008,09,23,10,01,11.50
2008,09,23,10,02,11.60
2008,09,23,10,03,11.50
2008,09,23,10,04,11.40
2008,09,23,10,05,11.30
2008,09,23,10,06,11.20
2008,09,23,10,07,11.20
2008,09,23,10,08,11.10
2008,09,23,10,09,11.10
2008,09,23,10,10,11.10
2008,09,23,10,11,11.10
2008,09,23,10,12,11.10
2008,09,23,10,13,11.10
2008,09,23,10,14,11.10
2008,09,23,10,15,11.10
2008,09,23,10,16,11.10
2008,09,23,10,17,11.20
2008,09,23,10,18,11.30
2008,09,23,10,19,11.40
2008,09,23,10,20,11.50
2008,09,23,10,21,11.60
2008,09,23,10,22,11.60
2008,09,23,10,23,11.70
2008,09,23,10,24,11.80
2008,09,23,10,25,11.80
2008,09,23,10,26,11.70
2008,09,23,10,27,11.60
2008,09,23,10,28,11.50
2008,09,23,10,29,11.30
2008,09,23,10,30,11.20
2008,09,23,10,31,11.10
2008,09,23,10,32,11.10
2008,09,23,10,33,11.10
2008,09,23,10,34,11.10
2008,09,23,10,35,11.20
2008,09,23,10,36,11.20
2008,09,23,10,37,11.20
2008,09,23,10,38,11.20
2008,09,23,10,39,11.30
2008,09,23,10,40,11.40
2008,09,23,10,41,11.60
2008,09,23,10,42,11.60
2008,09,23,10,43,11.70
2008,09,23,10,44,11.80
2008,09,23,10,45,11.80
2008,09,23,10,46,11.80
2008,09,23,10,47,11.80
2008,09,23,10,48,11.80
2008,09,23,10,49,11.90
2008,09,23,10,50,11.90
2008,09,23,10,51,11.80
2008,09,23,10,52,11.80
2008,09,23,10,53,11.80
2008,09,23,10,54,11.80
2008,09,23,10,55,11.70
2008,09,23,10,56,11.60
2008,09,23,10,57,11.50
2008,09,23,10,58,11.40
2008,09,23,10,59,11.40
2008,09,23,11,00,11.40
2008,09,23,11,01,11.40
2008,09,23,11,02,11.50
2008,09,23,11,03,11.60
2008,09,23,11,04,11.60
2008,09,23,11,05,11.70
2008,09,23,11,06,11.80
2008,09,23,11,07,11.80
2008,09,23,11,08,11.80
2008,09,23,11,09,11.70
2008,09,23,11,10,11.70
2008,09,23,11,11,11.80
2008,09,23,11,12,11.80
2008,09,23,11,13,11.80
2008,09,23,11,14,11.80
2008,09,23,11,15,11.70
2008,09,23,11,16,11.70
2008,09,23,11,17,11.60
2008,09,23,11,18,11.70
2008,09,23,11,19,11.70
2008,09,23,11,20,11.80
2008,09,23,11,21,11.80
2008,09,23,11,22,11.70
2008,09,23,11,23,11.60
2008,09,23,11,24,11.60
2008,09,23,11,25,11.60
2008,09,23,11,26,11.60
2008,09,23,11,27,11.60
2008,09,23,11,28,11.70
2008,09,23,11,29,11.80
2008,09,23,11,30,11.90
2008,09,23,11,31,12.00
2008,09,23,11,32,12.10
2008,09,23,11,33,12.20
2008,09,23,11,34,12.20
2008,09,23,11,35,12.10
2008,09,23,11,36,12.00
2008,09,23,11,37,11.90
2008,09,23,11,38,11.90
2008,09,23,11,39,11.90
2008,09,23,11,40,11.90
2008,09,23,11,41,11.80
2008,09,23,11,42,11.80
2008,09,23,11,43,11.80
2008,09,23,11,44,11.70
2008,09,23,11,45,11.70
2008,09,23,11,46,11.70
2008,09,23,11,47,11.60
2008,09,23,11,48,11.60
2008,09,23,11,49,11.50
2008,09,23,11,50,11.40
2008,09,23,11,51,11.40
2008,09,23,11,52,11.40
2008,09,23,11,53,11.40
2008,09,23,11,54,11.40
2008,09,23,11,55,11.40
2008,09,23,11,56,11.40
2008,09,23,11,57,11.50
2008,09,23,11,58,11.60
2008,09,23,11,59,11.70
2008,09,23,12,00,11.70
2008,09,23,12,01,11.70
2008,09,23,12,02,11.80
2008,09,23,12,03,11.80
2008,09,23,12,04,11.80
2008,09,23,12,05,11.80
2008,09,23,12,06,11.80
2008,09,23,12,07,11.80
2008,09,23,12,08,11.80
2008,09,23,12,09,11.80
2008,09,23,12,10,11.80
2008,09,23,12,11,11.90
2008,09,23,12,12,12.00
2008,09,23,12,13,12.10
2008,09,23,12,14,12.20
2008,09,23,12,15,12.30
2008,09,23,12,16,12.20
2008,09,23,12,17,12.00
2008,09,23,12,18,11.90
2008,09,23,12,19,11.80
2008,09,23,12,20,11.70
2008,09,23,12,21,11.70
2008,09,23,12,22,11.70
2008,09,23,12,23,11.60
2008,09,23,12,24,11.70
2008,09,23,12,25,11.70
2008,09,23,12,26,11.60
2008,09,23,12,27,11.60
2008,09,23,12,28,11.60
2008,09,23,12,29,11.70
2008,09,23,12,30,11.70
2008,09,23,12,31,11.80
2008,09,23,12,32,11.90
2008,09,23,12,33,12.00
2008,09,23,12,34,12.00
2008,09,23,12,35,12.00
2008,09,23,12,36,12.00
2008,09,23,12,37,12.00
2008,09,23,12,38,12.00
2008,09,23,12,39,12.00
2008,09,23,12,40,12.00
2008,09,23,12,41,12.10
2008,09,23,12,42,12.10
2008,09,23,12,43,12.20
2008,09,23,12,44,12.20
2008,09,23,12,45,12.20
2008,09,23,12,46,12.30
2008,09,23,12,47,12.30
2008,09,23,12,48,12.30
2008,09,23,12,49,12.30
2008,09,23,12,50,12.40
2008,09,23,12,51,12.50
2008,09,23,12,52,12.60
2008,09,23,12,53,12.60
2008,09,23,12,54,12.70
2008,09,23,12,55,12.70
2008,09,23,12,56,12.80
2008,09,23,12,57,12.90
2008,09,23,12,58,13.00
2008,09,23,12,59,13.10
2008,09,23,13,00,13.20
2008,09,23,13,01,13.30
2008,09,23,13,02,13.40
2008,09,23,13,03,13.50
2008,09,23,13,04,13.50
2008,09,23,13,05,13.60
2008,09,23,13,06,13.60
2008,09,23,13,07,13.60
2008,09,23,13,08,13.70
2008,09,23,13,09,13.70
2008,09,23,13,10,13.70
2008,09,23,13,11,13.70
2008,09,23,13,12,13.70
2008,09,23,13,13,13.80
2008,09,23,13,14,13.90
2008,09,23,13,15,13.90
2008,09,23,13,16,13.90
2008,09,23,13,17,13.80
2008,09,23,13,18,13.80
2008,09,23,13,19,13.70
2008,09,23,13,20,13.70
2008,09,23,13,21,13.60
2008,09,23,13,22,13.60
2008,09,23,13,23,13.60
2008,09,23,13,24,13.70
2008,09,23,13,25,13.70
2008,09,23,13,26,13.80
2008,09,23,13,27,13.80
2008,09,23,13,28,13.90
2008,09,23,13,29,13.80
2008,09,23,13,30,13.70
2008,09,23,13,31,13.60
2008,09,23,13,32,13.60
2008,09,23,13,33,13.60
2008,09,23,13,34,13.60
2008,09,23,13,35,13.60
2008,09,23,13,36,13.70
2008,09,23,13,37,13.70
2008,09,23,13,38,13.60
2008,09,23,13,39,13.50
2008,09,23,13,40,13.60
2008,09,23,13,41,13.60
2008,09,23,13,42,13.70
2008,09,23,13,43,13.70
2008,09,23,13,44,13.70
2008,09,23,13,45,13.80
2008,09,23,13,46,13.90
2008,09,23,13,47,13.90
2008,09,23,13,48,14.00
2008,09,23,13,49,14.00
2008,09,23,13,50,14.10
2008,09,23,13,51,14.10
2008,09,23,13,52,14.10
2008,09,23,13,53,14.10
2008,09,23,13,54,14.10
2008,09,23,13,55,14.20
2008,09,23,13,56,14.20
2008,09,23,13,57,14.10
2008,09,23,13,58,14.00
2008,09,23,13,59,14.00
2008,09,23,14,00,13.90
2008,09,23,14,01,13.80
2008,09,23,14,02,13.70
2008,09,23,14,03,13.60
2008,09,23,14,04,13.50
2008,09,23,14,05,13.40
2008,09,23,14,06,13.40
2008,09,23,14,07,13.40
2008,09,23,14,08,13.20
2008,09,23,14,09,13.10
2008,09,23,14,10,13.10
2008,09,23,14,11,13.20
2008,09,23,14,12,13.10
2008,09,23,14,13,13.00
2008,09,23,14,14,13.00
2008,09,23,14,15,13.10
2008,09,23,14,16,13.20
2008,09,23,14,17,13.20
2008,09,23,14,18,13.30
2008,09,23,14,19,13.40
2008,09,23,14,20,13.50
2008,09,23,14,21,13.60
2008,09,23,14,22,13.60
2008,09,23,14,23,13.60
2008,09,23,14,24,13.70
2008,09,23,14,25,13.70
2008,09,23,14,26,13.70
2008,09,23,14,27,13.70
2008,09,23,14,28,13.70
2008,09,23,14,29,13.70
2008,09,23,14,30,13.70
2008,09,23,14,31,13.70
2008,09,23,14,32,13.70
2008,09,23,14,33,13.70
2008,09,23,14,34,13.80
2008,09,23,14,35,13.80
2008,09,23,14,36,13.90
2008,09,23,14,37,13.90
2008,09,23,14,38,13.80
2008,09,23,14,39,13.80
2008,09,23,14,40,13.80
2008,09,23,14,41,13.70
2008,09,23,14,42,13.70
2008,09,23,14,43,13.70
2008,09,23,14,44,13.60
2008,09,23,14,45,13.60
2008,09,23,14,46,13.70
2008,09,23,14,47,13.70
2008,09,23,14,48,13.60
2008,09,23,14,49,13.50
2008,09,23,14,50,13.50
2008,09,23,14,51,13.50
2008,09,23,14,52,13.40
2008,09,23,14,53,13.30
2008,09,23,14,54,13.30
2008,09,23,14,55,13.30
2008,09,23,14,56,13.30
2008,09,23,14,57,13.30
2008,09,23,14,58,13.30
2008,09,23,14,59,13.30
2008,09,23,15,00,13.40
2008,09,23,15,01,13.50
2008,09,23,15,02,13.60
2008,09,23,15,03,13.60
2008,09,23,15,04,13.70
2008,09,23,15,05,13.70
2008,09,23,15,06,13.70
2008,09,23,15,07,13.70
2008,09,23,15,08,13.70
2008,09,23,15,09,13.70
2008,09,23,15,10,13.70
2008,09,23,15,11,13.60
2008,09,23,15,12,13.40
2008,09,23,15,13,13.20
2008,09,23,15,14,13.10
2008,09,23,15,15,13.10
2008,09,23,15,16,13.00
2008,09,23,15,17,13.00
2008,09,23,15,18,13.00
2008,09,23,15,19,12.90
2008,09,23,15,20,12.90
2008,09,23,15,21,12.90
2008,09,23,15,22,13.00
2008,09,23,15,23,13.00
2008,09,23,15,24,13.00
2008,09,23,15,25,13.10
2008,09,23,15,26,13.10
2008,09,23,15,27,13.20
2008,09,23,15,28,13.20
2008,09,23,15,29,13.20
2008,09,23,15,30,13.10
2008,09,23,15,31,13.10
2008,09,23,15,32,13.00
2008,09,23,15,33,13.00
2008,09,23,15,34,13.00
2008,09,23,15,35,12.90
2008,09,23,15,36,12.90
2008,09,23,15,37,13.00
2008,09,23,15,38,13.00
2008,09,23,15,39,12.90
2008,09,23,15,40,12.90
2008,09,23,15,41,12.90
2008,09,23,15,42,12.90
2008,09,23,15,43,13.00
2008,09,23,15,44,13.00
2008,09,23,15,45,13.10
2008,09,23,15,46,13.10
2008,09,23,15,47,13.20
2008,09,23,15,48,13.20
2008,09,23,15,49,13.20
2008,09,23,15,50,13.30
2008,09,23,15,51,13.20
2008,09,23,15,52,13.20
2008,09,23,15,53,13.30
2008,09,23,15,54,13.30
2008,09,23,15,55,13.30
2008,09,23,15,56,13.30
2008,09,23,15,57,13.30
2008,09,23,15,58,13.30
2008,09,23,15,59,13.40
2008,09,23,16,00,13.40
2008,09,23,16,01,13.50
2008,09,23,16,02,13.50
2008,09,23,16,03,13.50
2008,09,23,16,04,13.60
2008,09,23,16,05,13.60
2008,09,23,16,06,13.60
2008,09,23,16,07,13.70
2008,09,23,16,08,13.70
2008,09,23,16,09,13.70
2008,09,23,16,10,13.70
2008,09,23,16,11,13.60
2008,09,23,16,12,13.60
2008,09,23,16,13,13.60
2008,09,23,16,14,13.50
2008,09,23,16,15,13.40
2008,09,23,16,16,13.40
2008,09,23,16,17,13.30
2008,09,23,16,18,13.30
2008,09,23,16,19,13.40
2008,09,23,16,20,13.40
2008,09,23,16,21,13.40
2008,09,23,16,22,13.40
2008,09,23,16,23,13.50
2008,09,23,16,24,13.50
2008,09,23,16,25,13.50
2008,09,23,16,26,13.50
2008,09,23,16,27,13.50
2008,09,23,16,28,13.50
2008,09,23,16,29,13.50
2008,09,23,16,30,13.50
2008,09,23,16,31,13.60
2008,09,23,16,32,13.70
2008,09,23,16,33,13.70
2008,09,23,16,34,13.80
2008,09,23,16,35,13.90
2008,09,23,16,36,13.90
2008,09,23,16,37,14.00
2008,09,23,16,38,14.00
2008,09,23,16,39,14.00
2008,09,23,16,40,14.00
2008,09,23,16,41,14.00
2008,09,23,16,42,14.00
2008,09,23,16,43,14.00
2008,09,23,16,44,14.00
2008,09,23,16,45,14.10
2008,09,23,16,46,14.20
2008,09,23,16,47,14.20
2008,09,23,16,48,14.10
2008,09,23,16,49,14.10
2008,09,23,16,50,14.10
2008,09,23,16,51,14.10
2008,09,23,16,52,14.20
2008,09,23,16,53,14.20
2008,09,23,16,54,14.20
2008,09,23,16,55,14.20
2008,09,23,16,56,14.20
2008,09,23,16,57,14.20
2008,09,23,16,58,14.20
2008,09,23,16,59,14.20
2008,09,23,17,00,14.20
2008,09,23,17,01,14.20
2008,09,23,17,02,14.20
2008,09,23,17,03,14.20
2008,09,23,17,04,14.20
2008,09,23,17,05,14.20
2008,09,23,17,06,14.20
2008,09,23,17,07,14.20
2008,09,23,17,08,14.20
2008,09,23,17,09,14.20
2008,09,23,17,10,14.20
2008,09,23,17,11,14.20
2008,09,23,17,12,14.10
2008,09,23,17,13,14.10
2008,09,23,17,14,14.10
2008,09,23,17,15,14.10
2008,09,23,17,16,14.10
2008,09,23,17,17,14.10
2008,09,23,17,18,14.10
2008,09,23,17,19,14.10
2008,09,23,17,20,14.10
2008,09,23,17,21,14.10
2008,09,23,17,22,14.10
2008,09,23,17,23,14.00
2008,09,23,17,24,13.90
2008,09,23,17,25,13.90
2008,09,23,17,26,13.90
2008,09,23,17,27,13.80
2008,09,23,17,28,13.80
2008,09,23,17,29,13.80
2008,09,23,17,30,13.80
2008,09,23,17,31,13.80
2008,09,23,17,32,13.80
2008,09,23,17,33,13.70
2008,09,23,17,34,13.70
2008,09,23,17,35,13.70
2008,09,23,17,36,13.70
2008,09,23,17,37,13.70
2008,09,23,17,38,13.70
2008,09,23,17,39,13.70
2008,09,23,17,40,13.70
2008,09,23,17,41,13.70
2008,09,23,17,42,13.70
2008,09,23,17,43,13.80
2008,09,23,17,44,13.80